珠海一号 OHS-02B星 (ZHUHAI-1 OHS-02)

导读

ZHUHAI-1 OHS-02(珠海一号OHS-02B星),是中国于2018年4月26日由长征十一号运载火箭,以“一箭五星”方式在酒泉卫星发射中心送入太空的高光谱遥感卫星,隶属于珠海欧比特宇航科技股份有限公司运营的珠海一号商业微纳卫星星座。卫星目前仍在轨运行,主要服务于国土资源监测、环境保护、生态评估等遥感应用。

基本信息
目录编号:
43441
目录名称:
ZHUHAI-1 OHS-02
国际标识:
2018-040C
轨道中心:
EARTH
卫星名称:
珠海一号 OHS-02B星
卫星全名:
珠海一号 OHS-02B星 (ZHUHAI-1 OHS-02)
卫星状态:
在轨 (已飞行3053 天)
发射日期:
2018-04-26 UTC
国别 :
中国 (CN)
星等 :
--
轨道信息
数据来源 国际轨道数据 AOE轨道数据
星历时间 2026-09-04T13:04:49+0800
4小时前
查看轨道信息
2026-09-03T18:00:00+0800
23小时前
查看轨道信息
半长轴 6863.349km 6863.375km
偏心率 0.0007564 0.000768
轨道倾角 97.035° 97.036°
近地点辐角 319.615° 324.356°
升交点赤经 266.815° 266.065°
平近点角 40.453° 348.609°
近地点 480.02km 479.966km
远地点 490.404km 490.51km
周期 94.311分钟 94.312分钟
每日圈数 15.268582 15.268493
详细信息
平衡模式:
三轴稳定
覆盖范围:
全球
运营商:
珠海欧比特宇航科技股份有限公司
运营商所在国:
中国
制造商(研发单位):
珠海欧比特宇航科技股份有限公司
制造商所在国:
中国
使用方式:
暂无
卫星简介
珠海一号(Zhuhai-1)卫星星座是由珠海欧比特宇航科技股份有限公司发射并运营的商业遥感微纳卫星星座,整个星座由34颗遥感卫星组成,分别是2颗视频试验卫星、10颗视频卫星、10颗高光谱卫星、2颗高分光学卫星、2颗SAR卫星和8颗红外卫星。该卫星仍在工作。
2D轨道图
3D轨道图
轨道高度分析图
轨道倾角分析图
轨道综合分析图
查看轨道综合分析图